| time (UTC) | temp F | wind direction | speed MPH | gust MPH | rain 1hr in | rain 24hr in | rain mn in | humidity % | barometer mb |
| 20260903105343 | 74 | 181 | 3.0 | 5.0 | 0.00 | 0.02 | 0.00 | 92 | 1022.4 |
| 20260903104844 | 74 | 179 | 3.0 | 5.0 | 0.00 | 0.02 | 0.00 | 93 | 1022.3 |
| 20260903104344 | 74 | 179 | 4.0 | 5.0 | 0.00 | 0.02 | 0.00 | 92 | 1022.3 |
| 20260903103842 | 74 | 174 | 4.0 | 5.0 | 0.00 | 0.02 | 0.00 | 93 | 1022.3 |
| 20260903103336 | 74 | 174 | 3.0 | 5.0 | 0.00 | 0.02 | 0.00 | 93 | 1022.3 |
| 20260903102833 | 74 | 184 | 3.0 | 5.0 | 0.00 | 0.02 | 0.00 | 93 | 1022.2 |
| 20260903102334 | 74 | 178 | 3.0 | 6.0 | 0.00 | 0.02 | 0.00 | 94 | 1022.3 |
| 20260903101826 | 74 | 167 | 4.0 | 6.0 | 0.00 | 0.02 | 0.00 | 94 | 1022.3 |
| 20260903101326 | 74 | 177 | 4.0 | 9.0 | 0.00 | 0.02 | 0.00 | 94 | 1022.3 |
| 20260903100821 | 74 | 172 | 6.0 | 10.0 | 0.00 | 0.02 | 0.00 | 94 | 1022.3 |
| 20260903100319 | 74 | 167 | 6.0 | 10.0 | 0.00 | 0.02 | 0.00 | 95 | 1022.3 |
| 20260903095816 | 73 | 153 | 8.0 | 10.0 | 0.00 | 0.02 | 0.00 | 95 | 1022.1 |
| 20260903095639 | 74 | 160 | 8.0 | 11.0 | 0.00 | 0.02 | 0.00 | 95 | 1022.1 |
| 20260903094814 | 73 | 151 | 9.0 | 11.0 | 0.00 | 0.02 | 0.00 | 95 | 1022.1 |
| 20260903094310 | 73 | 170 | 8.0 | 10.0 | 0.00 | 0.02 | 0.00 | 95 | 1022.1 |
| 20260903093810 | 73 | 165 | 9.0 | 10.0 | 0.00 | 0.02 | 0.00 | 95 | 1022.1 |
| 20260903093308 | 74 | 192 | 8.0 | 10.0 | 0.00 | 0.02 | 0.00 | 95 | 1022.2 |
| 20260903092803 | 73 | 170 | 8.0 | 11.0 | 0.00 | 0.02 | 0.00 | 96 | 1022.2 |
| 20260903092306 | 73 | 164 | 9.0 | 11.0 | 0.00 | 0.02 | 0.00 | 96 | 1022.2 |
| 20260903091802 | 73 | 164 | 9.0 | 11.0 | 0.00 | 0.02 | 0.00 | 96 | 1022.3 |
| 20260903091300 | 73 | 155 | 9.0 | 12.0 | 0.00 | 0.02 | 0.00 | 96 | 1022.3 |
| 20260903090752 | 73 | 178 | 9.0 | 12.0 | 0.00 | 0.02 | 0.00 | 96 | 1022.3 |
| 20260903090252 | 73 | 160 | 8.0 | 11.0 | 0.00 | 0.02 | 0.00 | 96 | 1022.3 |
| 20260903090126 | 73 | 175 | 7.0 | 13.0 | 0.00 | 0.02 | 0.00 | 96 | 1022.4 |
| 20260903085253 | 73 | 172 | 8.0 | 14.0 | 0.00 | 0.02 | 0.00 | 96 | 1022.4 |
| 20260903084751 | 73 | 171 | 11.0 | 14.0 | 0.00 | 0.02 | 0.00 | 96 | 1022.4 |
| 20260903084243 | 73 | 161 | 12.0 | 14.0 | 0.00 | 0.02 | 0.00 | 96 | 1022.4 |
| 20260903083739 | 73 | 167 | 9.0 | 13.0 | 0.00 | 0.02 | 0.00 | 96 | 1022.3 |
| 20260903083236 | 73 | 158 | 9.0 | 14.0 | 0.00 | 0.02 | 0.00 | 96 | 1022.2 |
| 20260903082734 | 73 | 172 | 9.0 | 14.0 | 0.00 | 0.02 | 0.00 | 96 | 1022.3 |
| 20260903082235 | 73 | 184 | 7.0 | 14.0 | 0.00 | 0.02 | 0.00 | 96 | 1022.2 |
| 20260903081731 | 73 | 155 | 11.0 | 14.0 | 0.00 | 0.02 | 0.00 | 96 | 1022.1 |
| 20260903081232 | 73 | 155 | 6.0 | 9.0 | 0.00 | 0.02 | 0.00 | 97 | 1022.1 |
| 20260903080733 | 73 | 23 | 0.0 | 1.0 | 0.00 | 0.02 | 0.00 | 97 | 1022.1 |
| 20260903080547 | 73 | 23 | 0.0 | 0.0 | 0.00 | 0.02 | 0.00 | 97 | 1022.1 |
| 20260903075732 | 73 | 23 | 0.0 | 0.0 | 0.00 | 0.02 | 0.00 | 97 | 1022.0 |
| 20260903075231 | 73 | 23 | 0.0 | 0.0 | 0.00 | 0.02 | 0.00 | 96 | 1021.9 |
| 20260903074730 | 73 | 23 | 0.0 | 0.0 | 0.00 | 0.02 | 0.00 | 97 | 1021.9 |
| 20260903074231 | 72 | 23 | 0.0 | 0.0 | 0.00 | 0.02 | 0.00 | 97 | 1022.0 |
| 20260903073727 | 72 | 23 | 0.0 | 0.0 | 0.00 | 0.02 | 0.00 | 96 | 1021.9 |
| 20260903073224 | 72 | 23 | 0.0 | 0.0 | 0.00 | 0.02 | 0.00 | 96 | 1021.9 |
| 20260903072723 | 72 | 23 | 0.0 | 0.0 | 0.00 | 0.02 | 0.00 | 96 | 1022.0 |
| 20260903072221 | 72 | 23 | 0.0 | 0.0 | 0.00 | 0.02 | 0.00 | 96 | 1021.9 |
| 20260903071720 | 72 | 23 | 0.0 | 0.0 | 0.00 | 0.02 | 0.00 | 96 | 1022.0 |
| 20260903071214 | 72 | 23 | 0.0 | 0.0 | 0.00 | 0.02 | 0.00 | 96 | 1021.9 |
| 20260903070716 | 72 | 23 | 0.0 | 0.0 | 0.00 | 0.02 | 0.00 | 96 | 1021.8 |
| 20260903070216 | 73 | 23 | 0.0 | 0.0 | 0.00 | 0.02 | 0.00 | 96 | 1021.8 |
| 20260903065709 | 73 | 23 | 0.0 | 0.0 | 0.00 | 0.02 | 0.00 | 96 | 1021.8 |
| 20260903065207 | 73 | 23 | 0.0 | 0.0 | 0.00 | 0.02 | 0.00 | 96 | 1021.9 |
| 20260903065021 | 73 | 23 | 0.0 | 0.0 | 0.00 | 0.02 | 0.00 | 96 | 1021.9 |
| 20260903064528 | 73 | 23 | 0.0 | 0.0 | 0.00 | 0.02 | 0.00 | 96 | 1021.9 |
| 20260903063706 | 73 | 23 | 0.0 | 0.0 | 0.00 | 0.02 | 0.00 | 96 | 1022.0 |
| 20260903063303 | 73 | 23 | 0.0 | 1.0 | 0.00 | 0.02 | 0.00 | 96 | 1022.0 |
| 20260903062205 | 73 | 23 | 1.0 | 1.0 | 0.00 | 0.02 | 0.00 | 96 | 1022.0 |
| 20260903062016 | 73 | 23 | 0.0 | 2.0 | 0.00 | 0.02 | 0.00 | 96 | 1022.1 |
| 20260903061204 | 73 | 23 | 1.0 | 2.0 | 0.00 | 0.02 | 0.00 | 96 | 1022.0 |
| 20260903060703 | 73 | 23 | 2.0 | 2.0 | 0.00 | 0.02 | 0.00 | 96 | 1022.0 |
| 20260903060202 | 73 | 23 | 2.0 | 3.0 | 0.00 | 0.02 | 0.00 | 96 | 1022.0 |
| 20260903055705 | 73 | 23 | 2.0 | 3.0 | 0.00 | 0.02 | 0.00 | 96 | 1022.1 |
| 20260903055515 | 73 | 23 | 2.0 | 3.0 | 0.00 | 0.02 | 0.00 | 96 | 1022.0 |
| 20260903054654 | 73 | 23 | 2.0 | 3.0 | 0.00 | 0.02 | 0.00 | 96 | 1022.1 |
| 20260903054509 | 73 | 23 | 2.0 | 3.0 | 0.00 | 0.02 | 0.00 | 96 | 1022.0 |
| 20260903053652 | 73 | 23 | 2.0 | 4.0 | 0.00 | 0.02 | 0.00 | 96 | 1022.0 |
| 20260903053149 | 73 | 23 | 3.0 | 4.0 | 0.00 | 0.02 | 0.00 | 96 | 1022.0 |
| 20260903052645 | 73 | 23 | 2.0 | 4.0 | 0.00 | 0.02 | 0.00 | 96 | 1022.0 |
| 20260903052147 | 73 | 23 | 3.0 | 4.0 | 0.00 | 0.02 | 0.00 | 96 | 1021.9 |
| 20260903051743 | 73 | 322 | 0.0 | 0.0 | 0.00 | 0.02 | 0.00 | 96 | 1022.0 |
| 20260903050732 | 73 | 322 | 0.0 | 0.0 | 0.00 | 0.02 | 0.00 | 96 | 1022.0 |
| 20260903045947 | 73 | 305 | 2.0 | 4.0 | 0.00 | 0.02 | 0.00 | 96 | 1022.0 |
| 20260903045133 | 73 | 256 | 1.0 | 3.0 | 0.00 | 0.02 | 0.00 | 96 | 1022.0 |
| 20260903044633 | 73 | 325 | 2.0 | 5.0 | 0.00 | 0.02 | 0.00 | 96 | 1022.0 |
| 20260903044132 | 73 | 325 | 2.0 | 5.0 | 0.00 | 0.02 | 0.00 | 96 | 1022.2 |
| 20260903043631 | 73 | 329 | 3.0 | 4.0 | 0.00 | 0.02 | 0.00 | 97 | 1022.2 |
| 20260903043133 | 73 | 218 | 0.0 | 1.0 | 0.00 | 0.02 | 0.00 | 97 | 1022.2 |
| 20260903042632 | 73 | 220 | 0.0 | 4.0 | 0.00 | 0.02 | 0.00 | 97 | 1022.2 |
| 20260903042131 | 73 | 218 | 2.0 | 4.0 | 0.00 | 0.02 | 0.00 | 97 | 1022.2 |
| 20260903041631 | 73 | 184 | 2.0 | 5.0 | 0.00 | 0.02 | 0.00 | 97 | 1022.3 |
| 20260903041131 | 73 | 188 | 4.0 | 5.0 | 0.00 | 0.02 | 0.00 | 96 | 1022.2 |
| 20260903040634 | 73 | 237 | 2.0 | 5.0 | 0.00 | 0.02 | 0.00 | 97 | 1022.2 |
| 20260903040132 | 73 | 302 | 2.0 | 5.0 | 0.00 | 0.02 | 0.00 | 97 | 1022.3 |
| 20260903035633 | 73 | 323 | 3.0 | 5.0 | 0.00 | 0.02 | 0.00 | 97 | 1022.3 |
| 20260903035133 | 73 | 309 | 3.0 | 4.0 | 0.00 | 0.02 | 0.00 | 97 | 1022.3 |
| 20260903034949 | 73 | 332 | 3.0 | 4.0 | 0.00 | 0.02 | 0.00 | 97 | 1022.3 |
| 20260903034128 | 73 | 332 | 3.0 | 3.0 | 0.00 | 0.02 | 0.00 | 97 | 1022.4 |
| 20260903033623 | 73 | 332 | 3.0 | 3.0 | 0.00 | 0.02 | 0.00 | 97 | 1022.4 |
| 20260903033122 | 73 | 332 | 2.0 | 3.0 | 0.00 | 0.02 | 0.00 | 97 | 1022.5 |
| 20260903032619 | 73 | 333 | 2.0 | 3.0 | 0.00 | 0.02 | 0.00 | 96 | 1022.5 |
| 20260903032116 | 74 | 333 | 2.0 | 4.0 | 0.00 | 0.02 | 0.00 | 96 | 1022.5 |
| 20260903031615 | 73 | 332 | 2.0 | 4.0 | 0.00 | 0.02 | 0.00 | 96 | 1022.6 |
| 20260903031114 | 73 | 332 | 4.0 | 4.0 | 0.00 | 0.02 | 0.00 | 96 | 1022.6 |
| 20260903030612 | 74 | 332 | 3.0 | 4.0 | 0.00 | 0.02 | 0.00 | 96 | 1022.7 |
| 20260903030107 | 73 | 332 | 2.0 | 3.0 | 0.00 | 0.02 | 0.00 | 96 | 1022.6 |
| 20260903025604 | 74 | 333 | 2.0 | 3.0 | 0.00 | 0.02 | 0.00 | 96 | 1022.6 |
| 20260903025104 | 73 | 332 | 2.0 | 3.0 | 0.00 | 0.02 | 0.00 | 96 | 1022.6 |
| 20260903024602 | 73 | 332 | 2.0 | 4.0 | 0.00 | 0.02 | 0.00 | 96 | 1022.6 |
| 20260903024102 | 73 | 332 | 3.0 | 4.0 | 0.00 | 0.02 | 0.00 | 96 | 1022.6 |
| 20260903023604 | 73 | 344 | 2.0 | 4.0 | 0.00 | 0.02 | 0.00 | 96 | 1022.7 |
| 20260903023415 | 73 | 6 | 3.0 | 3.0 | 0.00 | 0.02 | 0.00 | 96 | 1022.7 |
| 20260903022604 | 74 | 8 | 2.0 | 3.0 | 0.00 | 0.02 | 0.00 | 96 | 1022.8 |
| 20260903022103 | 73 | 8 | 0.0 | 0.0 | 0.00 | 0.02 | 0.00 | 96 | 1022.8 |
| 20260903021604 | 73 | 8 | 0.0 | 0.0 | 0.00 | 0.02 | 0.00 | 96 | 1022.8 |
| 20260903021102 | 73 | 8 | 0.0 | 0.0 | 0.00 | 0.02 | 0.00 | 96 | 1022.9 |
| 20260903020603 | 73 | 8 | 0.0 | 0.0 | 0.00 | 0.02 | 0.00 | 96 | 1023.0 |
| 20260903015600 | 73 | 8 | 1.0 | 2.0 | 0.00 | 0.02 | 0.00 | 96 | 1023.0 |
| 20260903015104 | 73 | 8 | 0.0 | 0.0 | 0.00 | 0.02 | 0.00 | 96 | 1023.0 |
| 20260903014920 | 73 | 8 | 0.0 | 0.0 | 0.00 | 0.02 | 0.00 | 97 | 1023.1 |
| 20260903014050 | 73 | 8 | 0.0 | 0.0 | 0.00 | 0.02 | 0.00 | 97 | 1023.0 |
| 20260903013546 | 73 | 8 | 0.0 | 0.0 | 0.00 | 0.02 | 0.00 | 97 | 1023.0 |
| 20260903013400 | 73 | 8 | 0.0 | 0.0 | 0.00 | 0.02 | 0.00 | 96 | 1023.1 |
| 20260903012544 | 73 | 8 | 0.0 | 0.0 | 0.00 | 0.02 | 0.00 | 97 | 1023.2 |
| 20260903012355 | 73 | 8 | 0.0 | 2.0 | 0.00 | 0.02 | 0.00 | 96 | 1023.2 |
| 20260903011538 | 73 | 8 | 0.0 | 2.0 | 0.00 | 0.02 | 0.00 | 96 | 1023.2 |
| 20260903011037 | 73 | 8 | 1.0 | 3.0 | 0.00 | 0.02 | 0.00 | 96 | 1023.2 |
| 20260903010533 | 73 | 8 | 2.0 | 4.0 | 0.00 | 0.02 | 0.00 | 96 | 1023.3 |
| 20260903010033 | 73 | 8 | 3.0 | 4.0 | 0.00 | 0.02 | 0.00 | 96 | 1023.3 |
| 20260903005532 | 72 | 8 | 3.0 | 3.0 | 0.00 | 0.02 | 0.00 | 96 | 1023.3 |
| 20260903005032 | 72 | 8 | 2.0 | 3.0 | 0.00 | 0.02 | 0.00 | 96 | 1023.3 |
| 20260903004532 | 73 | 8 | 2.0 | 3.0 | 0.00 | 0.02 | 0.00 | 96 | 1023.3 |
| 20260903004345 | 73 | 8 | 2.0 | 3.0 | 0.00 | 0.02 | 0.00 | 96 | 1023.4 |
| 20260903003531 | 73 | 8 | 2.0 | 3.0 | 0.00 | 0.02 | 0.00 | 96 | 1023.4 |
| 20260903003030 | 73 | 8 | 3.0 | 3.0 | 0.00 | 0.02 | 0.00 | 96 | 1023.4 |
| 20260903002527 | 73 | 8 | 2.0 | 4.0 | 0.00 | 0.02 | 0.00 | 96 | 1023.4 |
| 20260903002026 | 73 | 8 | 3.0 | 4.0 | 0.00 | 0.02 | 0.00 | 96 | 1023.4 |
| 20260903001523 | 73 | 8 | 2.0 | 3.0 | 0.00 | 0.02 | 0.00 | 96 | 1023.5 |
| 20260903001019 | 73 | 8 | 1.0 | 3.0 | 0.00 | 0.02 | 0.00 | 96 | 1023.6 |
| 20260903000516 | 73 | 8 | 0.0 | 3.0 | 0.00 | 0.02 | 0.00 | 97 | 1023.6 |
| 20260903000018 | 73 | 8 | 1.0 | 3.0 | 0.00 | 0.02 | 0.00 | 96 | 1023.6 |
| 20260902235514 | 73 | 8 | 2.0 | 3.0 | 0.00 | 0.02 | 0.02 | 97 | 1023.6 |
| 20260902235325 | 73 | 8 | 2.0 | 3.0 | 0.00 | 0.02 | 0.02 | 97 | 1023.6 |
| 20260902234521 | 72 | 8 | 2.0 | 4.0 | 0.00 | 0.02 | 0.02 | 97 | 1023.6 |
| 20260902234005 | 72 | 8 | 2.0 | 4.0 | 0.00 | 0.02 | 0.02 | 97 | 1023.6 |
| 20260902233823 | 72 | 8 | 3.0 | 4.0 | 0.00 | 0.02 | 0.02 | 96 | 1023.7 |
| 20260902233318 | 72 | 8 | 3.0 | 4.0 | 0.00 | 0.02 | 0.02 | 96 | 1023.7 |
| 20260902232503 | 72 | 8 | 4.0 | 4.0 | 0.00 | 0.02 | 0.02 | 96 | 1023.7 |
| 20260902232003 | 72 | 8 | 2.0 | 3.0 | 0.00 | 0.02 | 0.02 | 96 | 1023.7 |
| 20260902231459 | 72 | 8 | 3.0 | 4.0 | 0.00 | 0.02 | 0.02 | 96 | 1023.8 |
| 20260902230956 | 72 | 8 | 3.0 | 5.0 | 0.00 | 0.02 | 0.02 | 96 | 1023.8 |
| 20260902230829 | 72 | 8 | 4.0 | 5.0 | 0.00 | 0.02 | 0.02 | 96 | 1023.9 |
| 20260902225953 | 72 | 11 | 4.0 | 5.0 | 0.00 | 0.02 | 0.02 | 96 | 1023.9 |
| 20260902225454 | 72 | 306 | 3.0 | 4.0 | 0.00 | 0.02 | 0.02 | 96 | 1023.9 |
| 20260902224954 | 72 | 305 | 3.0 | 4.0 | 0.00 | 0.02 | 0.02 | 96 | 1024.0 |
| 20260902224452 | 72 | 305 | 4.0 | 4.0 | 0.00 | 0.02 | 0.02 | 96 | 1024.1 |
| 20260902223953 | 72 | 306 | 3.0 | 4.0 | 0.00 | 0.02 | 0.02 | 96 | 1024.0 |
| 20260902223451 | 72 | 305 | 4.0 | 4.0 | 0.00 | 0.02 | 0.02 | 96 | 1024.0 |
| 20260902222949 | 72 | 306 | 4.0 | 4.0 | 0.00 | 0.02 | 0.02 | 96 | 1024.0 |
| 20260902222450 | 72 | 306 | 2.0 | 3.0 | 0.00 | 0.02 | 0.02 | 96 | 1024.1 |
| 20260902221947 | 73 | 305 | 3.0 | 3.0 | 0.00 | 0.02 | 0.02 | 96 | 1024.1 |
| 20260902221446 | 73 | 305 | 2.0 | 4.0 | 0.00 | 0.02 | 0.02 | 96 | 1024.0 |
| 20260902220945 | 73 | 305 | 3.0 | 4.0 | 0.00 | 0.02 | 0.02 | 96 | 1024.0 |
| 20260902220441 | 73 | 306 | 3.0 | 5.0 | 0.00 | 0.02 | 0.02 | 96 | 1024.0 |
| 20260902215939 | 73 | 306 | 3.0 | 5.0 | 0.00 | 0.02 | 0.02 | 96 | 1024.0 |
| 20260902215440 | 73 | 306 | 4.0 | 5.0 | 0.00 | 0.02 | 0.02 | 96 | 1024.0 |
| 20260902214933 | 73 | 305 | 0.0 | 0.0 | 0.00 | 0.02 | 0.02 | 96 | 1023.9 |
| 20260902214747 | 73 | 306 | 0.0 | 0.0 | 0.00 | 0.02 | 0.02 | 96 | 1023.8 |
| 20260902213931 | 73 | 305 | 0.0 | 0.0 | 0.00 | 0.02 | 0.02 | 96 | 1023.7 |
| 20260902213428 | 73 | 306 | 0.0 | 0.0 | 0.00 | 0.02 | 0.02 | 96 | 1023.8 |
| 20260902212924 | 73 | 305 | 0.0 | 0.0 | 0.00 | 0.02 | 0.02 | 96 | 1023.7 |
| 20260902212422 | 73 | 305 | 0.0 | 0.0 | 0.00 | 0.02 | 0.02 | 96 | 1023.7 |
| 20260902211921 | 73 | 306 | 0.0 | 0.0 | 0.00 | 0.02 | 0.02 | 96 | 1023.7 |
| 20260902211415 | 73 | 306 | 0.0 | 0.0 | 0.00 | 0.02 | 0.02 | 96 | 1023.6 |
| 20260902210910 | 73 | 306 | 0.0 | 0.0 | 0.00 | 0.02 | 0.02 | 96 | 1023.6 |
| 20260902210405 | 73 | 306 | 0.0 | 0.0 | 0.00 | 0.02 | 0.02 | 96 | 1023.5 |
| 20260902210224 | 73 | 305 | 0.0 | 0.0 | 0.00 | 0.02 | 0.02 | 96 | 1023.5 |
| 20260902205405 | 73 | 305 | 0.0 | 0.0 | 0.00 | 0.02 | 0.02 | 96 | 1023.4 |
| 20260902204907 | 74 | 305 | 0.0 | 0.0 | 0.00 | 0.02 | 0.02 | 96 | 1023.4 |
| 20260902204406 | 73 | 306 | 0.0 | 1.0 | 0.00 | 0.02 | 0.02 | 96 | 1023.5 |
| 20260902203905 | 74 | 305 | 0.0 | 2.0 | 0.00 | 0.02 | 0.02 | 96 | 1023.4 |
| 20260902203403 | 74 | 306 | 1.0 | 2.0 | 0.00 | 0.02 | 0.02 | 96 | 1023.4 |
| 20260902202856 | 74 | 306 | 1.0 | 2.0 | 0.00 | 0.02 | 0.02 | 96 | 1023.4 |
| 20260902202355 | 74 | 305 | 0.0 | 2.0 | 0.00 | 0.02 | 0.02 | 96 | 1023.4 |
| 20260902201854 | 74 | 305 | 0.0 | 3.0 | 0.01 | 0.02 | 0.02 | 96 | 1023.4 |
| 20260902201354 | 74 | 306 | 2.0 | 3.0 | 0.01 | 0.02 | 0.02 | 96 | 1023.3 |
| 20260902200850 | 74 | 306 | 2.0 | 3.0 | 0.01 | 0.02 | 0.02 | 96 | 1023.4 |
| 20260902200440 | 74 | 305 | 2.0 | 3.0 | 0.01 | 0.02 | 0.02 | 96 | 1023.5 |
| 20260902195335 | 74 | 306 | 1.0 | 5.0 | 0.01 | 0.02 | 0.02 | 96 | 1023.5 |
| 20260902194834 | 74 | 305 | 2.0 | 5.0 | 0.01 | 0.02 | 0.02 | 96 | 1023.5 |
| 20260902194334 | 74 | 305 | 4.0 | 5.0 | 0.01 | 0.02 | 0.02 | 96 | 1023.6 |
| 20260902193834 | 74 | 306 | 2.0 | 4.0 | 0.02 | 0.02 | 0.02 | 96 | 1023.6 |
| 20260902193651 | 74 | 306 | 3.0 | 4.0 | 0.02 | 0.02 | 0.02 | 96 | 1023.7 |
| 20260902192833 | 74 | 306 | 0.0 | 0.0 | 0.02 | 0.02 | 0.02 | 96 | 1023.7 |
| 20260902192332 | 74 | 306 | 0.0 | 0.0 | 0.02 | 0.02 | 0.02 | 96 | 1023.6 |
| 20260902191832 | 74 | 306 | 0.0 | 0.0 | 0.02 | 0.02 | 0.02 | 95 | 1023.7 |
| 20260902191332 | 74 | 306 | 0.0 | 0.0 | 0.02 | 0.02 | 0.02 | 95 | 1023.7 |
| 20260902190832 | 74 | 306 | 0.0 | 0.0 | 0.02 | 0.02 | 0.02 | 95 | 1023.7 |
| 20260902190334 | 74 | 305 | 0.0 | 0.0 | 0.02 | 0.02 | 0.02 | 95 | 1023.7 |
| 20260902185835 | 75 | 305 | 0.0 | 0.0 | 0.02 | 0.00 | 0.02 | 95 | 1023.7 |
| 20260902185335 | 75 | 306 | 0.0 | 0.0 | 0.02 | 0.00 | 0.02 | 94 | 1023.7 |
| 20260902184834 | 75 | 305 | 0.0 | 0.0 | 0.02 | 0.00 | 0.02 | 95 | 1023.7 |
| 20260902184333 | 75 | 306 | 0.0 | 2.0 | 0.02 | 0.00 | 0.02 | 95 | 1023.7 |
| 20260902183832 | 75 | 306 | 1.0 | 3.0 | 0.01 | 0.00 | 0.01 | 94 | 1023.8 |
| 20260902183333 | 75 | 305 | 0.0 | 4.0 | 0.01 | 0.00 | 0.01 | 94 | 1023.8 |
| 20260902182833 | 75 | 306 | 3.0 | 4.0 | 0.01 | 0.00 | 0.01 | 93 | 1023.9 |
| 20260902182334 | 75 | 280 | 2.0 | 3.0 | 0.01 | 0.00 | 0.01 | 93 | 1023.8 |
| 20260902182138 | 75 | 280 | 2.0 | 3.0 | 0.00 | 0.00 | 0.00 | 93 | 1023.8 |
| 20260902181620 | 75 | 249 | 2.0 | 4.0 | 0.00 | 0.00 | 0.00 | 92 | 1024.0 |
| 20260902180810 | 76 | 247 | 3.0 | 4.0 | 0.00 | 0.00 | 0.00 | 92 | 1024.0 |
| 20260902180306 | 76 | 249 | 3.0 | 5.0 | 0.00 | 0.00 | 0.00 | 91 | 1023.9 |
| 20260902175804 | 76 | 251 | 4.0 | 5.0 | 0.00 | 0.00 | 0.00 | 91 | 1023.9 |
| 20260902175307 | 76 | 237 | 3.0 | 6.0 | 0.00 | 0.00 | 0.00 | 90 | 1023.8 |
| 20260902175118 | 76 | 229 | 5.0 | 6.0 | 0.00 | 0.00 | 0.00 | 90 | 1023.8 |
| 20260902174302 | 77 | 225 | 4.0 | 5.0 | 0.00 | 0.00 | 0.00 | 89 | 1023.9 |
| 20260902173759 | 77 | 226 | 4.0 | 5.0 | 0.00 | 0.00 | 0.00 | 89 | 1023.9 |
| 20260902173254 | 77 | 220 | 3.0 | 5.0 | 0.00 | 0.00 | 0.00 | 89 | 1023.9 |
| 20260902172750 | 77 | 210 | 4.0 | 5.0 | 0.00 | 0.00 | 0.00 | 89 | 1023.8 |
| 20260902172553 | 78 | 210 | 3.0 | 5.0 | 0.00 | 0.00 | 0.00 | 89 | 1023.9 |
| 20260902171751 | 78 | 206 | 2.0 | 5.0 | 0.00 | 0.00 | 0.00 | 89 | 1023.9 |
| 20260902171249 | 78 | 219 | 3.0 | 5.0 | 0.00 | 0.00 | 0.00 | 88 | 1023.9 |
| 20260902170749 | 78 | 210 | 4.0 | 5.0 | 0.00 | 0.00 | 0.00 | 88 | 1023.9 |
| 20260902170248 | 78 | 202 | 4.0 | 4.0 | 0.00 | 0.00 | 0.00 | 88 | 1023.9 |
| 20260902165744 | 78 | 225 | 3.0 | 4.0 | 0.00 | 0.00 | 0.00 | 89 | 1024.0 |
| 20260902165247 | 78 | 212 | 3.0 | 4.0 | 0.00 | 0.00 | 0.00 | 89 | 1023.9 |
| 20260902164746 | 77 | 210 | 3.0 | 5.0 | 0.00 | 0.00 | 0.00 | 89 | 1024.0 |
| 20260902164244 | 77 | 225 | 2.0 | 5.0 | 0.00 | 0.00 | 0.00 | 89 | 1024.0 |
| 20260902163745 | 77 | 220 | 4.0 | 5.0 | 0.00 | 0.00 | 0.00 | 90 | 1024.1 |
| 20260902163244 | 77 | 216 | 4.0 | 5.0 | 0.00 | 0.00 | 0.00 | 90 | 1024.2 |
| 20260902162744 | 77 | 226 | 3.0 | 5.0 | 0.00 | 0.00 | 0.00 | 90 | 1024.1 |
| 20260902162557 | 77 | 210 | 4.0 | 5.0 | 0.00 | 0.00 | 0.00 | 90 | 1024.2 |
| 20260902161744 | 77 | 201 | 4.0 | 6.0 | 0.00 | 0.00 | 0.00 | 89 | 1024.2 |
| 20260902161244 | 77 | 198 | 4.0 | 6.0 | 0.00 | 0.00 | 0.00 | 89 | 1024.3 |
| 20260902160745 | 78 | 216 | 4.0 | 6.0 | 0.00 | 0.00 | 0.00 | 89 | 1024.3 |
| 20260902160620 | 78 | 219 | 3.0 | 5.0 | 0.00 | 0.00 | 0.00 | 88 | 1024.4 |
| 20260902155744 | 78 | 199 | 3.0 | 5.0 | 0.00 | 0.00 | 0.00 | 88 | 1024.4 |
| 20260902155244 | 78 | 218 | 3.0 | 6.0 | 0.00 | 0.00 | 0.00 | 89 | 1024.5 |
| 20260902154743 | 78 | 219 | 3.0 | 6.0 | 0.00 | 0.00 | 0.00 | 89 | 1024.5 |
| 20260902154243 | 78 | 196 | 4.0 | 6.0 | 0.00 | 0.00 | 0.00 | 89 | 1024.6 |
| 20260902153744 | 78 | 218 | 3.0 | 6.0 | 0.00 | 0.00 | 0.00 | 89 | 1024.6 |
| 20260902153239 | 77 | 191 | 3.0 | 6.0 | 0.00 | 0.00 | 0.00 | 90 | 1024.6 |
| 20260902152737 | 77 | 225 | 4.0 | 7.0 | 0.00 | 0.00 | 0.00 | 90 | 1024.6 |
| 20260902152237 | 77 | 210 | 4.0 | 7.0 | 0.00 | 0.00 | 0.00 | 90 | 1024.6 |
| 20260902151733 | 77 | 212 | 6.0 | 6.0 | 0.00 | 0.00 | 0.00 | 89 | 1024.7 |
| 20260902151232 | 77 | 226 | 4.0 | 6.0 | 0.00 | 0.00 | 0.00 | 89 | 1024.7 |
| 20260902150731 | 77 | 225 | 4.0 | 7.0 | 0.00 | 0.00 | 0.00 | 90 | 1024.8 |
| 20260902150231 | 77 | 215 | 6.0 | 7.0 | 0.00 | 0.00 | 0.00 | 90 | 1024.7 |
| 20260902145725 | 77 | 205 | 4.0 | 7.0 | 0.00 | 0.00 | 0.00 | 90 | 1024.8 |
| 20260902145225 | 77 | 223 | 7.0 | 7.0 | 0.00 | 0.00 | 0.00 | 89 | 1024.8 |
| 20260902144725 | 77 | 212 | 5.0 | 7.0 | 0.00 | 0.00 | 0.00 | 89 | 1024.8 |
| 20260902144223 | 78 | 203 | 4.0 | 7.0 | 0.00 | 0.00 | 0.00 | 89 | 1024.9 |
| 20260902144041 | 78 | 229 | 4.0 | 7.0 | 0.00 | 0.00 | 0.00 | 89 | 1024.8 |
| 20260902143221 | 78 | 208 | 5.0 | 7.0 | 0.00 | 0.00 | 0.00 | 89 | 1024.8 |
| 20260902143038 | 78 | 206 | 4.0 | 7.0 | 0.00 | 0.00 | 0.00 | 90 | 1024.8 |
| 20260902142218 | 77 | 220 | 5.0 | 6.0 | 0.00 | 0.00 | 0.00 | 90 | 1024.8 |
| 20260902141715 | 77 | 203 | 4.0 | 6.0 | 0.00 | 0.00 | 0.00 | 90 | 1024.8 |
| 20260902141214 | 77 | 206 | 5.0 | 6.0 | 0.00 | 0.00 | 0.00 | 90 | 1024.9 |
| 20260902141027 | 77 | 187 | 4.0 | 6.0 | 0.00 | 0.00 | 0.00 | 91 | 1024.9 |
| 20260902140523 | 77 | 171 | 5.0 | 6.0 | 0.00 | 0.00 | 0.00 | 91 | 1024.9 |
| 20260902135707 | 77 | 229 | 4.0 | 6.0 | 0.00 | 0.00 | 0.00 | 91 | 1024.9 |
| 20260902135203 | 76 | 199 | 4.0 | 7.0 | 0.00 | 0.00 | 0.00 | 92 | 1024.9 |
| 20260902134703 | 76 | 198 | 5.0 | 7.0 | 0.00 | 0.00 | 0.00 | 92 | 1024.9 |
| 20260902134202 | 76 | 185 | 6.0 | 7.0 | 0.00 | 0.00 | 0.00 | 91 | 1025.0 |
| 20260902133704 | 76 | 189 | 5.0 | 6.0 | 0.00 | 0.00 | 0.00 | 91 | 1025.0 |
| 20260902133158 | 76 | 199 | 5.0 | 6.0 | 0.00 | 0.00 | 0.00 | 90 | 1025.0 |
| 20260902132657 | 77 | 196 | 5.0 | 6.0 | 0.00 | 0.00 | 0.00 | 91 | 1025.0 |
| 20260902132156 | 77 | 206 | 5.0 | 6.0 | 0.00 | 0.00 | 0.00 | 91 | 1025.0 |
| 20260902132010 | 76 | 195 | 5.0 | 6.0 | 0.00 | 0.00 | 0.00 | 91 | 1025.1 |
| 20260902131152 | 76 | 191 | 5.0 | 7.0 | 0.00 | 0.00 | 0.00 | 91 | 1025.1 |
| 20260902130646 | 76 | 189 | 6.0 | 7.0 | 0.00 | 0.00 | 0.00 | 91 | 1025.0 |
| 20260902130145 | 76 | 196 | 6.0 | 6.0 | 0.00 | 0.00 | 0.00 | 91 | 1025.2 |
| 20260902125642 | 76 | 201 | 5.0 | 6.0 | 0.00 | 0.00 | 0.00 | 91 | 1025.2 |
| 20260902125454 | 76 | 192 | 5.0 | 6.0 | 0.00 | 0.00 | 0.00 | 92 | 1025.2 |
| 20260902124637 | 76 | 188 | 5.0 | 6.0 | 0.00 | 0.00 | 0.00 | 91 | 1025.2 |
| 20260902124138 | 76 | 199 | 5.0 | 6.0 | 0.00 | 0.00 | 0.00 | 92 | 1025.2 |
| 20260902123635 | 76 | 174 | 5.0 | 6.0 | 0.00 | 0.00 | 0.00 | 92 | 1025.2 |
| 20260902123442 | 76 | 201 | 5.0 | 6.0 | 0.00 | 0.00 | 0.00 | 91 | 1025.3 |
| 20260902122732 | 76 | 198 | 5.0 | 6.0 | 0.00 | 0.00 | 0.00 | 90 | 1025.3 |
| 20260902121956 | 77 | 174 | 4.0 | 7.0 | 0.00 | 0.00 | 0.00 | 90 | 1025.4 |
| 20260902121132 | 76 | 184 | 5.0 | 7.0 | 0.00 | 0.00 | 0.00 | 91 | 1025.3 |
| 20260902120945 | 76 | 174 | 5.0 | 7.0 | 0.00 | 0.00 | 0.00 | 91 | 1025.3 |
| 20260902120130 | 76 | 167 | 4.0 | 6.0 | 0.00 | 0.00 | 0.00 | 92 | 1025.3 |
| 20260902115634 | 76 | 163 | 5.0 | 6.0 | 0.00 | 0.00 | 0.00 | 92 | 1025.4 |
| 20260902115127 | 76 | 181 | 4.0 | 6.0 | 0.00 | 0.00 | 0.00 | 92 | 1025.3 |
| 20260902114625 | 76 | 164 | 6.0 | 6.0 | 0.00 | 0.00 | 0.00 | 91 | 1025.3 |
| 20260902114123 | 76 | 161 | 5.0 | 6.0 | 0.00 | 0.00 | 0.00 | 91 | 1025.3 |
| 20260902113623 | 76 | 189 | 4.0 | 6.0 | 0.00 | 0.00 | 0.00 | 92 | 1025.3 |
| 20260902113435 | 76 | 192 | 5.0 | 6.0 | 0.00 | 0.00 | 0.00 | 92 | 1025.3 |
| 20260902112620 | 76 | 177 | 5.0 | 6.0 | 0.00 | 0.00 | 0.00 | 92 | 1025.3 |
| 20260902112118 | 76 | 157 | 4.0 | 5.0 | 0.00 | 0.00 | 0.00 | 92 | 1025.3 |
| 20260902111927 | 76 | 165 | 3.0 | 4.0 | 0.00 | 0.00 | 0.00 | 92 | 1025.2 |
| 20260902111115 | 76 | 168 | 4.0 | 4.0 | 0.00 | 0.00 | 0.00 | 93 | 1025.1 |
| 20260902110609 | 75 | 168 | 3.0 | 4.0 | 0.00 | 0.00 | 0.00 | 93 | 1025.2 |
| 20260902110114 | 75 | 160 | 3.0 | 5.0 | 0.00 | 0.00 | 0.00 | 94 | 1025.2 |
| 20260902105602 | 75 | 144 | 3.0 | 5.0 | 0.00 | 0.00 | 0.00 | 93 | 1025.2 |